Location: Melizzano
(41.1500°N, 14.5000°E)
Time: 22:59:27
(UTC+00:00)

NOSS 3-3 (A) - Pass Details

Date: 11 May 2021
Orbit: 810 x 1402 km, 63.4° (Epoch: 06 June)

Event Time Altitude Azimuth Distance (km) Brightness Sun altitude
Rises 19:29:39 0° 212° (SSW) 3,348 6.7 -13.6°
Reaches altitude 10° 19:31:59 10° 212° (SSW) 2,452 6.0 -13.9°
Maximum altitude 19:37:37 87° 125° (SE) 908 3.8 -14.7°
Drops below altitude 10° 19:44:01 10° 35° (NE) 2,770 6.5 -15.6°
Sets 19:46:48 0° 36° (NE) 3,814 7.2 -16.0°
